www.pogodaiklimat.ru
ПОГОДА в Чхонджу
Время
(UTC), дата
03 5.08
06 5.08
09 5.08
12 5.08
15 5.08
18 5.08
21 5.08
00 6.08
03 6.08
12 6.08
15 6.08
18 6.08
21 6.08
00 7.08
03 7.08
06 7.08
09 7.08
12 7.08
15 7.08
18 7.08
21 7.08
00 8.08
03 8.08
06 8.08
09 8.08
12 8.08
15 8.08
18 8.08
21 8.08
00 9.08
03 9.08
06 9.08
09 9.08
12 9.08
15 9.08
18 9.08
21 9.08
00 10.08
03 10.08
06 10.08
09 10.08
12 10.08
15 10.08
18 10.08
21 10.08
00 11.08
03 11.08
06 11.08
09 11.08
12 11.08
15 11.08
18 11.08
21 11.08
00 12.08
Ветер
(напр.,м/с)
Видим. Явления Облачность Т
(С)
Тd
(С)
f
(%)
Тe
(С)
Тes
(С)
Комфортность P
(гПа)
Po
(гПа)
Тmin
(С)
Tmax
(С)
R
(мм)
R24
(мм)
S
(см)
З 3 1500 м гроза, ливневой дождь 10/10 600 м
[Cb cap As op]
+25.4 +23.9 91 +35 +35 очень
душно
1013.1 1006.6
Ю 1 5000 м дождь 10// 300 м
[Frnb As op]
+26.2 +24.6 91 +37 +37 очень
душно
1012.2 1005.7 54
ЮВ 2 11 км 8/1 1000 м
[Sc Ac trans]
+28.8 +24.3 77 +40 +41 очень
душно
1010.4 1004.0
Ю 3 9000 м дымка 4/0
[Ci fib]
+27.3 +24.1 83 +38 +38 очень
душно
1009.8 1003.3 +29.8 55
Ю 4 11 км 10/8 1500 м
[Sc As op]
+27.3 +23.7 81 +37 +37 очень
душно
1008.2 1001.8
Ю 3 12 км слаб. дождь 10/10 1000 м
[Sc As op]
+26.2 +23.8 87 +36 +36 очень
душно
1005.5 999.0 0.4
Ю 3 11 км слаб. дождь 10// 300 м
[Frnb As op]
+25.2 +23.6 91 +34 +34 очень
душно
1003.9 997.4
З 7 22 км слаб. дождь 10/8 300 м
[Frnb As op]
+26.8 +24.0 85 +37 +37 очень
душно
1005.3 998.9 +24.8 19
З 2 18 км 10/10 300 м
[Sc As op]
+26.7 +23.9 85 +37 +37 очень
душно
1006.1 999.7
З 1 35 км 9/1 600 м
[Sc Ci sp]
+24.5 +22.1 86 +32 +32 очень
душно
1008.2 1001.7 +27.7 0.4
З 1 19 км 9/4 300 м
[Sc Ci sp]
+23.8 +22.2 91 +31 +31 очень
душно
1008.8 1002.3
8000 м дымка 10/9 300 м
[Sc As op]
+23.6 +21.8 90 1008.7 1002.2
СВ 1 900 м туман 8/1 300 м
[Sc Ac trans]
+22.2 +21.3 95 +29 +29 очень
душно
1008.0 1001.4
штиль 0 11 км 10/5 1500 м
[Sc As op]
+24.2 +21.5 85 +31 +32 очень
душно
1008.2 1001.7 +22.2 0.0
СВ 4 13 км слаб. дождь 10/10 200 м
[Frnb Ns]
+23.8 +21.8 89 +31 +31 очень
душно
1007.4 1000.9
В 2 11 км слаб. дождь 10/10 300 м
[Frnb Ns]
+23.7 +20.8 84 +30 +30 очень
душно
1005.8 999.3 5
В 1 28 км слаб. дождь 10// 600 м
[Sc As op]
+23.3 +21.3 89 +31 +32 очень
душно
1005.5 999.0
штиль 0 14 км в посл. час дождь 10/5 600 м
[Sc As op]
+23.0 +21.9 94 +31 +31 очень
душно
1005.4 998.9 +24.5 13
штиль 0 7000 м слаб. дождь 10/10 200 м
[Frnb Ns]
+22.7 +21.6 94 +30 +30 очень
душно
1004.8 998.3
СВ 1 5000 м слаб. дождь 10// 200 м
[Frnb As op]
+22.7 +21.6 94 +30 +30 очень
душно
1003.6 997.1 4
штиль 0 7000 м слаб. дождь 10/10 300 м
[Frnb Ns]
+22.7 +21.8 95 +30 +30 очень
душно
1003.1 996.6
СВ 2 11 км слаб. дождь 10/8 200 м
[Frnb As op]
+23.7 +22.3 92 +31 +31 очень
душно
1002.9 996.4 +22.5 5
штиль 0 8000 м дождь 10// 300 м
[Frnb As op]
+23.7 +22.6 94 +31 +36 очень
душно
1003.0 996.5
ЮВ 2 40 км в посл. час дождь 10/5 300 м
[Sc As op]
+25.7 +24.1 91 +36 +37 очень
душно
1002.4 995.9 15
ЮВ 1 30 км слаб. дождь 10/10 300 м
[Sc As op]
+25.5 +23.3 88 +34 +34 очень
душно
1002.3 995.8
Ю 3 15 км 10/6 600 м
[Sc As op]
+25.6 +23.2 87 +34 +34 очень
душно
1003.2 996.7 +27.2 16
Ю 1 29 км 10/10 600 м
[Sc As op]
+25.6 +23.4 88 +35 +35 очень
душно
1003.7 997.2
Ю 1 21 км дождь 10// 600 м
[Frnb As op]
+25.0 +23.4 91 +34 +34 очень
душно
1002.7 996.2 0.5
Ю 1 16 км дождь 10// 200 м
[Frnb As op]
+24.2 +23.1 94 +32 +32 очень
душно
1003.2 996.8
Ю 4 35 км в посл. час дождь 10/8 1000 м
[Sc As op]
+25.0 +22.8 88 +33 +33 очень
душно
1003.8 997.3 +24.1 26
Ю 2 40 км слаб. дождь 10/6 1000 м
[Frnb As op]
+27.1 +23.9 83 +37 +39 очень
душно
1003.7 997.3
ЮЗ 1 40 км в посл. час дождь 10/9 1000 м
[Sc As op]
+28.2 +24.8 82 +40 +41 очень
душно
1003.0 996.6 1
ЮЗ 1 45 км 9/0
[Ac inh]
+28.6 +24.3 78 +40 +42 очень
душно
1002.3 995.9
Ю 2 40 км 8/5 1000 м
[Sc Ac trans]
+27.2 +24.4 85 +38 +38 очень
душно
1003.4 997.0 +28.7 1
40 км н/о +26.8 +22.6 78 +35 +35 очень
душно
1004.3 997.9
Ю 1 50 км 4/4 1000 м
[Sc]
+25.7 +22.3 82 +34 +34 очень
душно
1004.3 997.8
ЮЗ 1 45 км в посл. час дождь 8/6 600 м
[Sc Ci fib]
+26.1 +23.3 85 +35 +35 очень
душно
1004.4 997.9
Ю 3 40 км в посл. час дождь 9/9 300 м
[Sc]
+26.6 +24.8 90 +38 +39 очень
душно
1004.9 998.5 +25.1 0.4
ЮВ 2 55 км в посл. час дождь 10/5 600 м
[Sc As op]
+29.7 +24.3 73 +42 +44 опасность
перегрева
1003.4 997.1
Ю 2 17 км слаб. дождь 10/6 300 м
[Frnb As op]
+27.1 +24.5 86 +38 +39 очень
душно
1002.5 996.1 2
ЮЗ 1 40 км слаб. дождь 10/9 1500 м
[Frnb As op]
+25.9 +24.1 90 +36 +36 очень
душно
1002.7 996.3
Ю 3 55 км слаб. дождь 10/8 300 м
[Sc As op]
+25.2 +23.9 93 +35 +35 очень
душно
1004.4 997.9 +30.5 7
Ю 1 4300 м дождь 10// 300 м
[Frnb As op]
+25.0 +23.9 94 +34 +34 очень
душно
1004.6 998.1
Ю 1 40 км 10/6 600 м
[Sc As op]
+25.8 +24.3 91 +36 +36 очень
душно
1005.7 999.2
З 1 19 км 10/9 1000 м
[Sc As op]
+25.8 +23.4 87 +35 +35 очень
душно
1007.3 1000.8
Ю 2 14 км слаб. дождь 10/9 300 м
[Frnb As op]
+25.7 +23.9 90 +35 +36 очень
душно
1008.4 1001.9 +24.7 55
ЮЗ 1 35 км слаб. дождь 10/10 300 м
[Frnb Ns]
+25.7 +23.9 90 +35 +35 очень
душно
1010.2 1003.7
штиль 0 50 км в посл. час дождь 9// 600 м
[Sc]
+26.2 +22.2 79 +34 +44 очень
душно
1010.5 1004.0 23
С 2 13 км слаб. дождь 10/10 1000 м
[Frnb Ns]
+25.0 +22.8 88 +33 +33 очень
душно
1010.0 1003.5
штиль 0 12 км 9/9 1000 м
[Sc]
+24.7 +23.4 92 +33 +33 очень
душно
1011.6 1005.1 +26.8 30
СЗ 1 5000 м слаб. дождь 10// 300 м
[Frnb As op]
+24.7 +23.8 95 +34 +34 очень
душно
1012.4 1005.9
Ю 1 4700 м дымка 10/5 1000 м
[Sc As op]
+24.7 +23.8 95 +34 +34 очень
душно
1012.2 1005.7
СВ 1 8000 м в посл. час дождь 9// 300 м
[Sc]
+24.5 +23.6 95 +33 +33 очень
душно
1013.2 1006.7
Ю 1 10 км дымка 10/8 600 м
[Sc As op]
+26.5 +24.9 91 +38 +38 очень
душно
1013.2 1006.7 +24.2 2
Местоположение метеостанции Чхонджу (Корея): широта 36.63 долгота 127.45 высота над уровнем моря 59 м.
В архиве по умолчанию представлена погода в Чхонджу за последнюю неделю. Архивные данные за месяц целиком и за предыдущие месяцы, начиная с января 2011 года, Вы можете получить, выбрав интересующий диапазон дат из раскрывающегося списка и нажав кнопку "Найти!".
*Определитесь, кто Вы:
Внимание! Время в таблицах - всемирное. Для получения местного времени необходимо прибавить поправку, которая равна 9 ч.
Смотрите также архив погоды в соседних городах и на ближайших метеорологических станциях:
Партнеры нашего сайта:      
Пояснения к столбцам:
  • Ветер - указаны скорость ветра в м/с - средняя за 10 мин, порывы в срок и между сроками (в фигурных скобках) и направление, откуда дует ветер: С - северный,
  • СВ - северо-восточный, В - восточный, ЮВ - юго-восточный, Ю - южный, ЮЗ - юго-западный, З - западный, СЗ - северо-западный.
  • Видимость - горизонтальная дальность видимости в метрах или километрах. При видимости от 1 до 10 км при отсутствии осадков обычно наблюдается дымка, при ухудшении видимости до 1 км и менее - туман. В сухую погоду видимость может ухудшаться дымом, пылью или мглою.
  • Явления - указаны атмосферные явления, наблюдавшиеся в срок или в последний час перед сроком; фигурными скобками обозначены явления, наблюдавшиеся между сроками (за 1-3 часа до срока); квадратными скобками обозначены град или гололедные отложения с указанием их диаметра в мм.
  • Облачность - указаны через наклонную черту общая и нижняя облачность в баллах и высота нижней границы облаков в метрах; квадратными скобками обозначены формы облаков: Ci - перистые, Cs - перисто-слоистые, Cc - перисто-кучевые, Ac - высококучевые, As - высокослоистые, Sc - слоисто-кучевые, Ns - слоисто-дождевые, Cu - кучевые, Cb - кучево-дождевые. Подробнее классификацию облаков см. в Атласе облаков (PDF).
  • T - Температура воздуха - температура, измеренная на высоте 2 м над землей.
  • Td - Температура точки росы - температура, при понижении до которой содержащийся в воздухе водяной пар достигнет насыщения.
  • f - Относительная влажность воздуха - влажноcть воздуха, измеренная на высоте 2 м над землей.
  • Te - Эффективная температура - температура, которую ощущает одетый по сезону человек в тени. Характеристика душности погоды. При расчете учитывается влияние влажности воздуха и скорости ветра на теплоощущения человека.
  • Tes - Эффективная температура на солнце - температура, которую ощущает человек, с поправкой на солнечный нагрев. Характеристика знойности погоды. Зависит от высоты солнца над горизонтом, облачности и скорости ветра. Ночью, в пасмурную погоду, а также при ветре 12 м/с и более поправка равна нулю.
  • P - Атмосферное давление - приведенное к уровню моря атмосферное давление.
  • Po - Атмосферное давление - измеренное на уровне метеостанции атмосферное давление.
  • Tmin - Минимальная температура - минимум температуры воздуха на высоте 2 м над землей.
  • Tmax - Максимальная температура - максимум температуры воздуха на высоте 2 м над землей.
  • R - Количество осадков - Количество выпавших осадков за период времени, мм. При наведении курсора мыши на число - период времени, за который выпало указанное количество осадков.
  • R24 - Количество осадков - Количество выпавших осадков за 24 часа, мм.
  • S - Снежный покров - Высота снежного покрова, см. При наведении курсора мыши на число - состояние снежного покрова и степень покрытия местности в баллах.